Weather History for KCEF - April, 2014

Change the Weather History Date:

Tuesday, April 29, 2014

  Actual Average Record
Temperature  
Mean Temperature 44 °F -  
Max Temperature 50 °F 63 °F 77 °F (2003)
Min Temperature 40 °F 41 °F 25 °F (2012)
Degree Days  
Heating Degree Days 21    
Moisture  
Dew Point 38 °F    
Average Humidity 82    
Maximum Humidity 98    
Minimum Humidity 59    
Precipitation  
Precipitation 0.03 in - - ()
Sea Level Pressure  
Sea Level Pressure 30.39 in    
Wind  
Wind Speed 7 mph (East)    
Max Wind Speed 12 mph    
Max Gust Speed 22 mph    
Visibility 10 miles    
Events Rain    
Averages and records for this station are not official NWS values.
T = Trace of Precipitation, MM = Missing Value Source: NWS Daily Summary

Daily Weather History Graph

Daily Weather History Graph

Search for Another Location

Airport or City:

Trip Planner

Search our weather history database for the weather conditions in past years. The results will help you decide how hot, cold, wet, or windy it might be!

Date:

Astronomy

Apr. 29, 2014 Rise Set
Actual Time 5:48 AM EDT 7:47 PM EDT
Civil Twilight 5:18 AM EDT 8:17 PM EDT
Nautical Twilight 4:41 AM EDT 8:54 PM EDT
Astronomical Twilight 4:00 AM EDT 9:35 PM EDT
Moon 6:04 AM EDT (4/29) 8:24 PM EDT (4/29)
Length of Visible Light 14h 59m
Length of Day
13h 58m
New Moon, 0% of the Moon is Illuminated
Apr 29
New Moon
May 6
First Quarter
May 14
Full
May 21
Last Quarter
May 28
New

Hourly Weather History & Observations

Time (EDT) Temp. Windchill Dew Point Humidity Pressure Visibility Wind Dir Wind Speed Gust Speed Precip Events Conditions
12:58 AM 47.8 °F - 42.3 °F 81% 30.22 in 10.0 mi ENE 4.6 mph - N/A   Overcast
1:58 AM 48.6 °F - 41.2 °F 76% 30.22 in 10.0 mi East 4.6 mph - N/A   Overcast
2:58 AM 46.9 °F - 42.3 °F 84% 30.25 in 10.0 mi East 9.2 mph 16.1 mph N/A   Overcast
3:13 AM 46.4 °F 41.5 °F 42.8 °F 87% 30.23 in 10.0 mi East 10.4 mph - N/A   Mostly Cloudy
3:23 AM 46.4 °F 45.2 °F 41.0 °F 81% 30.24 in 10.0 mi ESE 3.5 mph - N/A   Overcast
3:30 AM 46.4 °F 42.4 °F 41.0 °F 81% 30.24 in 10.0 mi East 8.1 mph - N/A   Overcast
3:32 AM 46.4 °F 42.4 °F 41.0 °F 81% 30.25 in 10.0 mi East 8.1 mph - N/A   Overcast
3:33 AM 46.4 °F 42.4 °F 41.0 °F 81% 30.25 in 10.0 mi East 8.1 mph - N/A   Overcast
3:40 AM 46.4 °F 42.9 °F 41.0 °F 81% 30.25 in 10.0 mi East 6.9 mph - N/A   Overcast
3:48 AM 46.4 °F 41.5 °F 41.0 °F 81% 30.26 in 10.0 mi East 10.4 mph - N/A   Overcast
3:55 AM 46.4 °F 41.9 °F 41.0 °F 81% 30.27 in 10.0 mi East 9.2 mph 17.3 mph N/A   Overcast
3:58 AM 46.0 °F 41.9 °F 41.2 °F 83% 30.29 in 10.0 mi East 8.1 mph 17.3 mph N/A   Overcast
4:58 AM 44.6 °F 39.2 °F 40.1 °F 84% 30.30 in 10.0 mi East 10.4 mph - N/A   Overcast
5:05 AM 44.6 °F 38.8 °F 41.0 °F 87% 30.28 in 10.0 mi ENE 11.5 mph - N/A   Overcast
5:21 AM 44.6 °F 39.7 °F 39.2 °F 81% 30.29 in 10.0 mi East 9.2 mph - N/A   Overcast
5:27 AM 44.6 °F 39.7 °F 39.2 °F 81% 30.29 in 10.0 mi East 9.2 mph - N/A   Overcast
5:58 AM 43.3 °F 38.6 °F 40.1 °F 88% 30.31 in 10.0 mi East 8.1 mph - N/A   Overcast
6:12 AM 42.8 °F 37.5 °F 39.2 °F 87% 30.30 in 10.0 mi East 9.2 mph - N/A   Overcast
6:58 AM 43.0 °F 38.8 °F 41.2 °F 93% 30.36 in 10.0 mi East 6.9 mph - N/A   Overcast
7:17 AM 42.8 °F 38.0 °F 39.2 °F 87% 30.34 in 10.0 mi ENE 8.1 mph - N/A   Overcast
7:18 AM 42.8 °F 38.0 °F 39.2 °F 87% 30.34 in 10.0 mi ENE 8.1 mph - N/A   Overcast
7:26 AM 42.8 °F 38.6 °F 39.2 °F 87% 30.35 in 10.0 mi Variable 6.9 mph - N/A   Overcast
7:32 AM 42.8 °F 38.6 °F 39.2 °F 87% 30.35 in 10.0 mi East 6.9 mph - N/A   Overcast
7:48 AM 42.8 °F 38.0 °F 37.4 °F 81% 30.35 in 10.0 mi East 8.1 mph - N/A   Overcast
7:58 AM 43.3 °F 37.7 °F 38.5 °F 83% 30.38 in 10.0 mi East 10.4 mph - N/A   Overcast
8:00 AM 42.8 °F 37.5 °F 37.4 °F 81% 30.36 in 10.0 mi East 9.2 mph - N/A   Overcast
8:03 AM 42.8 °F 37.0 °F 37.4 °F 81% 30.35 in 10.0 mi East 10.4 mph - N/A   Overcast
8:04 AM 42.8 °F 37.5 °F 37.4 °F 81% 30.36 in 10.0 mi East 9.2 mph - N/A   Overcast
8:44 AM 44.6 °F 40.2 °F 35.6 °F 71% 30.37 in 10.0 mi East 8.1 mph 21.9 mph N/A   Overcast
8:45 AM 44.6 °F 40.2 °F 35.6 °F 71% 30.37 in 10.0 mi East 8.1 mph 21.9 mph N/A   Overcast
8:58 AM 43.9 °F 41.3 °F 33.8 °F 68% 30.41 in 10.0 mi Variable 4.6 mph - N/A   Overcast
9:58 AM 45.0 °F 41.2 °F 33.6 °F 64% 30.43 in 10.0 mi Variable 6.9 mph - N/A   Overcast
10:58 AM 45.7 °F 41.0 °F 34.7 °F 65% 30.43 in 10.0 mi ESE 9.2 mph 19.6 mph N/A   Overcast
11:58 AM 46.0 °F 41.9 °F 35.2 °F 66% 30.44 in 10.0 mi East 8.1 mph - N/A   Overcast
12:58 PM 45.9 °F 41.2 °F 36.3 °F 69% 30.44 in 10.0 mi East 9.2 mph 20.7 mph N/A   Overcast
1:58 PM 46.0 °F 41.4 °F 36.5 °F 69% 30.45 in 10.0 mi East 9.2 mph 17.3 mph N/A   Overcast
2:30 PM 48.2 °F - 35.6 °F 62% 30.43 in 10.0 mi ESE 9.2 mph - N/A   Overcast
2:58 PM 47.3 °F - 34.9 °F 62% 30.45 in 10.0 mi Variable 5.8 mph 17.3 mph N/A   Overcast
3:58 PM 47.7 °F - 34.0 °F 59% 30.44 in 10.0 mi East 10.4 mph 19.6 mph N/A   Overcast
4:58 PM 45.9 °F 41.7 °F 33.6 °F 62% 30.45 in 10.0 mi East 8.1 mph 16.1 mph N/A   Overcast
5:21 PM 44.6 °F 39.7 °F 33.8 °F 66% 30.44 in 10.0 mi East 9.2 mph - N/A   Overcast
5:56 PM 44.6 °F 40.2 °F 35.6 °F 71% 30.44 in 10.0 mi East 8.1 mph - N/A   Overcast
5:58 PM 44.6 °F 40.2 °F 35.6 °F 71% 30.47 in 10.0 mi East 8.1 mph - N/A Rain Light Rain
6:51 PM 42.8 °F 38.6 °F 37.4 °F 81% 30.44 in 10.0 mi East 6.9 mph - N/A   Overcast
6:58 PM 42.4 °F 39.6 °F 37.0 °F 81% 30.48 in 10.0 mi East 4.6 mph - 0.00 in   Overcast
7:21 PM 42.8 °F 40.1 °F 37.4 °F 81% 30.45 in 10.0 mi Variable 4.6 mph - N/A Rain Light Rain
7:58 PM 41.5 °F 38.6 °F 38.7 °F 89% 30.51 in 10.0 mi East 4.6 mph - 0.01 in Rain Light Rain
8:11 PM 41.0 °F 39.0 °F 39.2 °F 93% 30.48 in 10.0 mi East 3.5 mph - N/A   Overcast
8:22 PM 41.0 °F - 39.2 °F 93% 30.48 in 10.0 mi East 2.3 mph - N/A Rain Light Rain
8:52 PM 41.0 °F 35.8 °F 39.2 °F 93% 30.47 in 10.0 mi East 8.1 mph - N/A   Overcast
8:58 PM 40.1 °F 36.9 °F 39.6 °F 98% 30.50 in 10.0 mi East 4.6 mph - 0.02 in   Overcast
9:02 PM 41.0 °F 38.0 °F 39.2 °F 93% 30.47 in 10.0 mi East 4.6 mph - N/A   Overcast
9:58 PM 40.1 °F - 39.6 °F 98% 30.51 in 10.0 mi ESE 2.3 mph - N/A   Overcast
10:19 PM 41.0 °F - 39.2 °F 93% 30.49 in 10.0 mi ENE 2.3 mph - N/A Rain Light Rain
10:32 PM 41.0 °F 39.0 °F 39.2 °F 93% 30.49 in 10.0 mi East 3.5 mph - N/A   Overcast
10:38 PM 41.0 °F - 39.2 °F 93% 30.49 in 10.0 mi East 2.3 mph - N/A   Overcast
10:46 PM 41.0 °F 39.0 °F 39.2 °F 93% 30.49 in 10.0 mi East 3.5 mph - N/A Rain Light Rain
10:58 PM 40.3 °F 38.2 °F 39.7 °F 98% 30.52 in 10.0 mi East 3.5 mph - 0.00 in Rain Light Rain
11:00 PM 41.0 °F 39.0 °F 39.2 °F 93% 30.49 in 10.0 mi East 3.5 mph - N/A   Overcast
11:50 PM 41.0 °F 39.0 °F 39.2 °F 93% 30.48 in 10.0 mi East 3.5 mph - N/A   Overcast
11:58 PM 40.3 °F 38.2 °F 39.7 °F 98% 30.51 in 10.0 mi East 3.5 mph - 0.00 in   Overcast